This demonstration page uses our WeatherBlox Daily Observations layout. Learn more.

Left ArrowRight Arrow

39.01783, -85.05884

Hourly Observations for August 3, 2017

Temp ( °F °C ) Dew Point ( °F °C ) Humidity (%) Winds ( mph kmh ) Pressure ( in mb ) Visibility ( mi km ) Precip ( " mm )
12:52 am 00:52 Partly Cloudy 67 19.4 67 19.4 100 100 S 6 9 30.05 1018 8 13 0.00 0.00
1:52 am 01:52 Mostly Clear 68 20 68 20 100 100 SSW 7 11 30.04 1017 10 16 0.00 0.00
2:52 am 02:52 Clear 68 20 68 20 100 100 SSW 7 11 30.04 1017 10 16 0.00 0.00
3:52 am 03:52 Clear 68 20 68 20 100 100 Calm 30.04 1017 10 16 0.00 0.00
4:52 am 04:52 Clear 66 18.9 66 18.9 100 100 Calm 30.04 1017 8 13 0.00 0.00
5:52 am 05:52 Clear with Mist and Fog 66 18.9 66 18.9 100 100 Calm 30.05 1018 6 10 0.00 0.00
6:52 am 06:52 Partly Cloudy with Mist and Fog 64 17.8 64 17.8 100 100 SSE 5 7 30.06 1018 6 10 0.00 0.00
7:52 am 07:52 Mostly Sunny 66 18.9 66 18.9 100 100 Calm 30.06 1018 8 13 0.00 0.00
8:52 am 08:52 Sunny 70 21.1 69 20.6 97 97 SSW 3 6 30.08 1019 10 16 0.00 0.00
9:52 am 09:52 Mostly Sunny 74 23.3 69 20.6 85 85 S 8 13 30.08 1019 10 16 0.00 0.00
10:52 am 10:52 Mostly Sunny 76 24.4 70 21.1 82 82 S 5 7 30.07 1018 10 16 0.00 0.00
11:52 am 11:52 Mostly Sunny 79 26.1 70 21.1 74 74 S 9 15 30.06 1018 10 16 0.00 0.00
12:52 pm 12:52 Partly Cloudy 81 27.2 70 21.1 69 69 SSW 10 17 30.05 1018 10 16 0.00 0.00
1:52 pm 13:52 Partly Cloudy 83 28.3 71 21.7 67 67 S 8 13 30.03 1017 10 16 0.00 0.00
2:52 pm 14:52 Partly Cloudy 83 28.3 71 21.7 67 67 S 10 17 30.00 1016 10 16 0.00 0.00
3:52 pm 15:52 Mostly Cloudy 85 29.4 70 21.1 61 61 SSW 10 17 29.97 1015 10 16 0.00 0.00
4:52 pm 16:52 Mostly Cloudy 85 29.4 68 20 57 57 SW 9 15 29.95 1014 10 16 0.00 0.00
5:52 pm 17:52 Partly Cloudy 82 27.8 71 21.7 69 69 S 16 26 29.96 1015 10 16 0.00 0.00
6:52 pm 18:52 Partly Cloudy 81 27.2 70 21.1 69 69 SSW 9 15 29.96 1015 10 16 0.00 0.00
7:52 pm 19:52 Partly Cloudy 78 25.6 69 20.6 74 74 SW 8 13 29.98 1015 10 16 0.00 0.00
8:52 pm 20:52 Mostly Cloudy 75 23.9 66 18.9 74 74 S 7 11 29.96 1014 10 16 0.00 0.00
9:52 pm 21:52 Mostly Clear 72 22.2 67 19.4 84 84 S 6 9 29.96 1015 10 16 0.00 0.00
10:52 pm 22:52 Mostly Cloudy 71 21.7 69 20.6 94 94 S 7 11 29.96 1015 10 16 0.00 0.00
11:52 pm 23:52 Mostly Cloudy 71 21.7 69 20.6 94 94 S 7 11 29.94 1014 10 16 0.00 0.00

Powered by AerisWeather